Regional Weather Roundup
Issued by NWS

Home | Current Version | Previous Version | Text Only | Print | Product List | Glossary Off
Versions: 1 2 3 4 5 6 7 8 9 10 11 12 13 14 15 16 17 18 19 20 21 22 23 24 25 26 27 28 29 30 31 32 33 34 35 36 37 38 39 40 41 42 43 44 45 46 47 48 49 50

031
ASUS43 KDTX 231701
RWRMI
MICHIGAN HOURLY REGIONAL WEATHER ROUNDUP
NATIONAL WEATHER SERVICE DETROIT/PONTIAC MI
1200 PM EST MON JAN 23 2017

NOTE: "FAIR" INDICATES FEW OR NO CLOUDS BELOW 12,000 FEET WITH NO
SIGNIFICANT WEATHER AND/OR OBSTRUCTION TO VISIBILITY.

MIZ047>049-052>055-059>063-066>070-074>076-081>083-231800-
SOUTHEAST LOWER MICHIGAN

CITY           SKY/WX    TMP DP  RH WIND       PRES   REMARKS
ADRIAN         LGT RAIN  42  42 100 NE7       29.67F
ALMA           CLOUDY    39  38  99 NE5       29.72F FOG
ANN ARBOR      LGT RAIN  42  41  96 N8        29.67F FOG
BAD AXE        LGT RAIN  37  37 100 E3        29.72F
CARO           RAIN      38  38  98 E3        29.71F
DETROIT CITY   LGT RAIN  42  41  96 N7        29.68F FOG
DETROIT        LGT RAIN  43  41  93 N9        29.68F FOG
FLINT          LGT RAIN  40  38  93 E6        29.70F FOG
GROSSE ILE     LGT RAIN  41  40  98 NE7       29.66F
HILLSDALE      FOG       39  39 100 N5        29.66F VSB 3/4
HOWELL         DRIZZLE   40  39  97 CALM      29.68F

CITY           SKY/WX    TMP DP  RH WIND       PRES   REMARKS
JACKSON        CLOUDY    41  40  96 N7        29.68S FOG
LAMBERTVILLE   DRIZZLE   43  40  92 NE5       29.66F
LANSING        FOG       39  37  92 NE3       29.71S VSB 1
LAPEER         RAIN      38  38 100 NE3       29.70F
MASON          CLOUDY    39  39 100 NE5       29.69F FOG
MONROE         DRIZZLE   42  41  99 NE6       29.66F
PONTIAC        LGT RAIN  39  37  92 NE5       29.67F FOG
PORT HOPE        N/A     36  36 100 E7        29.72F WCI  30
TRI CITIES     FOG       37  37 100 NE7       29.72F VSB 1/8 WCI  32
MIDLAND        CLOUDY    39  38  97 NE5       29.72S FOG
TROY           LGT RAIN  40  39  96 N5        29.70F
SAGINAW HB     FOG       37  36  93 NE3       29.72S VSB 1/4
$$
MIZ043>046-050>051-056>058-064>065-071>073-077>080-231800-
SOUTHWEST LOWER MICHIGAN

CITY           SKY/WX    TMP DP  RH WIND       PRES   REMARKS
BATTLE CREEK   CLOUDY    41  41 100 NE9       29.70S FOG
BENTON HARBOR  CLOUDY    39  37  92 VRB5      29.74S
BIG RAPIDS     CLOUDY    38  38  97 NW3       29.72F FOG
COLDWATER      CLOUDY    41  41 100 N6        29.68S FOG
FREMONT        CLOUDY    39  38  99 N6        29.74S WCI  34
HOLLAND        CLOUDY    40  37  89 NW7       29.74S
GRAND RAPIDS   DRIZZLE   42  39  89 N7        29.71S FOG
IONIA          CLOUDY    39  38  99 NE5       29.70S FOG
KALAMAZOO      CLOUDY    42  39  89 N9        29.70F FOG
LUDINGTON      CLOUDY    40  40 100 NW3       29.75S FOG
MARSHALL       CLOUDY    40  39  99 N3        29.69S FOG
MOUNT PLEASANT CLOUDY    38  38  99 N3        29.72S FOG
MUSKEGON       CLOUDY    40  37  89 NW5       29.75S
SOUTH HAVEN    CLOUDY    38  37  97 N9        29.73F WCI  31
$$
MIZ016>042-231800-
NORTHERN LOWER MICHIGAN

CITY           SKY/WX    TMP DP  RH WIND       PRES   REMARKS
ALPENA         CLOUDY    37  36  96 E6        29.76F FOG     WCI  32
BEAVER ISLAND  CLOUDY    37  37 100 E8        29.75F FOG     WCI  30
BELLAIRE       FOG       36  36  99 CALM      29.75S VSB 1/2
CADILLAC       CLOUDY    38  37  97 CALM      29.71F FOG
CHARLEVOIX     CLOUDY    37  37 100 E5        29.77S FOG     WCI  33
FRANKFORT      CLOUDY    41  40  98 W3        29.74F FOG
GAYLORD        FOG       37  34  89 E5        29.72F VSB 1/4 WCI  33
GRAYLING       FOG       37  37  99 CALM      29.73F VSB 1
HARBOR SPRINGS FOG       36  36 100 NE6       29.75F VSB 3/4 WCI  31
HOUGHTON LAKE  CLOUDY    37  36  96 E5        29.72F FOG     WCI  33
MANISTEE       CLOUDY    41  40  96 W10       29.74F
OSCODA         CLOUDY    38  37  97 NE5       29.74F FOG     WCI  35
PELLSTON       FOG       36  34  92 E7        29.76F VSB 1/2 WCI  30
ROGERS CITY    CLOUDY    36  35  96 E7        29.78F FOG     WCI  30
TRAVERSE CITY  FOG       40  39  97 CALM      29.74S VSB 1
$$
MIZ007>008-015-231800-
EASTERN UPPER MICHIGAN

CITY           SKY/WX    TMP DP  RH WIND       PRES   REMARKS
KINROSS        CLOUDY    34  34 100 E12       29.79S FOG     WCI  25
MACKINAC ISLAN FOG       34  34 100 E7        29.77S VSB 1/4 WCI  28
NEWBERRY       CLOUDY    34  33  96 E6        29.77F FOG     WCI  29
S. S. MARIE    CLOUDY    36  35  96 E3        29.79F FOG
MUNISING         N/A     36  36 100 N3        29.78S
$$
MIZ004>006-011>014-085-231800-
CENTRAL UPPER MICHIGAN

CITY           SKY/WX    TMP DP  RH WIND       PRES   REMARKS
MANISTIQUE     FOG       35  34  97 E7        29.77S VSB 1/2 WCI  29
ESCANABA       CLOUDY    38  38 100 CALM      29.78S
SAWYER-GWINN   CLOUDY    34  34 100 N6        29.77S FOG     WCI  29
$$
MIZ001>003-009>011-084-231800-
WESTERN UPPER MICHIGAN

CITY           SKY/WX    TMP DP  RH WIND       PRES   REMARKS
IRON MOUNTAIN  CLOUDY    36  31  82 N6        29.76R WCI  31
HOUGHTON       FOG       35  34  96 S3        29.76S VSB<1/4
COPPER HARBOR    N/A     38  35  89 CALM      29.77S
IRONWOOD       FOG       35  35 100 CALM      29.78R VSB<1/4
$$

ABBREVIATIONS USED IN REMARKS
   TC - TEMPERATURE IN CELSIUS
  WCI - WIND CHILL INDEX
   HX - HEAT INDEX
  VSB - VISIBILITY





USA.gov is the U.S. government's official web portal to all federal, state and local government web resources and services.